When you browse on this site, cookies collect data to enhance your experience and personalize the content and advertising you see.
Visit our Privacy Policy to learn more. By continuing to use the site, you agree to this use of cookies and data.
  • In Austria
  • List of Countries
  • For 7 days
  • Water Temperature
  • Weather Map
  • News
  • Weather Widgets
  • user-avatar
    Login

    Hourly Weather Ordino

    Today, 6 December, Friday

    Time Temperature Precipitation Wind Pressure Humidity
    00:00 +1°C° 0 mm 1 mps 634 mmHg 92%
    01:00 +1°C° 0 mm 1 mps 634 mmHg 91%
    02:00 +1°C° 0 mm 1 mps 633 mmHg 90%
    03:00 +1°C° 0 mm 1 mps 633 mmHg 89%
    04:00 +1°C° 0 mm 1 mps 633 mmHg 89%
    05:00 +1°C° 0 mm 1 mps 633 mmHg 89%
    06:00 +1°C° 0 mm 1 mps 634 mmHg 89%
    07:00 +2°C° 0 mm 1 mps 634 mmHg 86%
    08:00 +3°C° 0 mm 1 mps 635 mmHg 84%
    09:00 +4°C° 0 mm 0 mps 635 mmHg 81%
    10:00 +5°C° 0 mm 0 mps 635 mmHg 78%
    11:00 +7°C° 0 mm 1 mps 636 mmHg 75%
    12:00 +8°C° 0 mm 1 mps 636 mmHg 72%
    13:00 +7°C° 0 mm 1 mps 635 mmHg 76%
    14:00 +7°C° 0 mm 1 mps 635 mmHg 79%
    15:00 +7°C° 0 mm 1 mps 634 mmHg 83%
    16:00 +5°C° 0 mm 1 mps 634 mmHg 86%
    17:00 +4°C° 0 mm 1 mps 634 mmHg 89%
    18:00 +2°C° 0 mm 1 mps 633 mmHg 92%
    19:00 +2°C° 0 mm 1 mps 633 mmHg 91%
    20:00 +2°C° 0 mm 1 mps 633 mmHg 89%
    21:00 +2°C° 0 mm 1 mps 633 mmHg 88%
    22:00 +2°C° 0 mm 1 mps 634 mmHg 87%
    23:00 +2°C° 0 mm 1 mps 634 mmHg 86%

    Tomorrow, 7 December, Saturday

    Time Temperature Precipitation Wind Pressure Humidity
    00:00 +2°C° 0 mm 1 mps 634 mmHg 86%
    01:00 +2°C° 0 mm 1 mps 634 mmHg 84%
    02:00 +2°C° 0 mm 1 mps 633 mmHg 82%
    03:00 +2°C° 0 mm 1 mps 633 mmHg 81%
    04:00 +2°C° 0 mm 1 mps 633 mmHg 81%
    05:00 +2°C° 0 mm 1 mps 633 mmHg 81%
    06:00 +2°C° 0 mm 1 mps 634 mmHg 81%
    07:00 +3°C° 0 mm 1 mps 634 mmHg 78%
    08:00 +4°C° 0 mm 1 mps 635 mmHg 75%
    09:00 +5°C° 0 mm 1 mps 635 mmHg 72%
    10:00 +6°C° 0 mm 1 mps 636 mmHg 70%
    11:00 +7°C° 0 mm 1 mps 636 mmHg 68%
    12:00 +8°C° 0 mm 1 mps 636 mmHg 66%
    13:00 +8°C° 0 mm 1 mps 636 mmHg 70%
    14:00 +7°C° 0 mm 1 mps 635 mmHg 74%
    15:00 +7°C° 0 mm 1 mps 635 mmHg 77%
    16:00 +5°C° 0 mm 1 mps 635 mmHg 82%
    17:00 +4°C° 0 mm 1 mps 634 mmHg 86%
    18:00 +1°C° 0 mm 2 mps 634 mmHg 91%
    19:00 +2°C° 0 mm 1 mps 634 mmHg 88%
    20:00 +2°C° 0 mm 1 mps 634 mmHg 86%
    21:00 +2°C° 0 mm 1 mps 634 mmHg 84%
    22:00 +2°C° 0 mm 1 mps 634 mmHg 78%
    23:00 +2°C° 0 mm 1 mps 634 mmHg 73%

    Day after tomorrow, 8 December, Sunday

    Time Temperature Precipitation Wind Pressure Humidity
    00:00 +2°C° 0 mm 1 mps 634 mmHg 67%
    01:00 +2°C° 0 mm 1 mps 634 mmHg 64%
    02:00 +2°C° 0 mm 1 mps 634 mmHg 60%
    03:00 +2°C° 0 mm 1 mps 633 mmHg 57%
    04:00 +2°C° 0 mm 1 mps 633 mmHg 56%
    05:00 +2°C° 0 mm 1 mps 633 mmHg 55%
    06:00 +2°C° 0 mm 1 mps 633 mmHg 54%
    07:00 +3°C° 0 mm 1 mps 634 mmHg 52%
    08:00 +5°C° 0 mm 1 mps 635 mmHg 51%
    09:00 +6°C° 0 mm 1 mps 635 mmHg 49%
    10:00 +7°C° 0 mm 1 mps 635 mmHg 48%
    11:00 +8°C° 0 mm 1 mps 636 mmHg 47%
    12:00 +10°C° 0 mm 1 mps 636 mmHg 47%
    13:00 +9°C° 0 mm 1 mps 635 mmHg 53%
    14:00 +8°C° 0 mm 1 mps 635 mmHg 59%
    15:00 +8°C° 0 mm 1 mps 634 mmHg 65%
    16:00 +7°C° 0.4 mm 1 mps 634 mmHg 72%
    17:00 +6°C° 0.4 mm 1 mps 634 mmHg 79%
    18:00 +5°C° 0.4 mm 2 mps 634 mmHg 87%
    19:00 +5°C° 0.4 mm 2 mps 634 mmHg 89%
    20:00 +5°C° 0.4 mm 2 mps 634 mmHg 91%
    21:00 +5°C° 0.4 mm 2 mps 634 mmHg 92%
    22:00 +4°C° 0 mm 2 mps 634 mmHg 92%
    23:00 +4°C° 0 mm 2 mps 634 mmHg 92%

    9 December, Monday

    Time Temperature Precipitation Wind Pressure Humidity
    00:00 +3°C° 0 mm 2 mps 634 mmHg 91%
    01:00 +2°C° 0 mm 2 mps 634 mmHg 85%
    02:00 +2°C° 0 mm 2 mps 633 mmHg 79%
    03:00 +1°C° 0 mm 2 mps 633 mmHg 72%
    04:00 +1°C° 0 mm 2 mps 633 mmHg 70%
    05:00 -1°C° 0 mm 2 mps 633 mmHg 68%
    06:00 -1°C° 0 mm 2 mps 632 mmHg 65%
    07:00 +1°C° 0 mm 2 mps 633 mmHg 64%
    08:00 +2°C° 0 mm 2 mps 633 mmHg 62%
    09:00 +3°C° 0 mm 2 mps 634 mmHg 61%
    10:00 +2°C° 0 mm 3 mps 634 mmHg 60%
    11:00 +3°C° 0 mm 3 mps 634 mmHg 59%
    12:00 +4°C° 0 mm 4 mps 634 mmHg 58%
    13:00 +3°C° 0.4 mm 4 mps 634 mmHg 65%
    14:00 +1°C° 0.4 mm 4 mps 633 mmHg 71%
    15:00 0°C° 0.4 mm 4 mps 633 mmHg 78%
    16:00 0°C° 0.5 mm 4 mps 633 mmHg 82%
    17:00 -1°C° 0.5 mm 4 mps 633 mmHg 86%
    18:00 -2°C° 0.5 mm 4 mps 633 mmHg 90%
    19:00 -2°C° 0.2 mm 4 mps 634 mmHg 89%
    20:00 -2°C° 0.2 mm 4 mps 635 mmHg 88%
    21:00 -2°C° 0.2 mm 4 mps 635 mmHg 87%
    22:00 -2°C° 0 mm 4 mps 635 mmHg 86%
    23:00 -3°C° 0 mm 4 mps 635 mmHg 85%

    10 December, Tuesday

    Time Temperature Precipitation Wind Pressure Humidity
    00:00 -3°C° 0 mm 4 mps 635 mmHg 83%
    01:00 -2°C° 0 mm 3 mps 635 mmHg 81%
    02:00 -4°C° 0 mm 3 mps 635 mmHg 79%
    03:00 -4°C° 0 mm 3 mps 635 mmHg 77%
    04:00 -4°C° 0 mm 3 mps 635 mmHg 74%
    05:00 -4°C° 0 mm 3 mps 635 mmHg 70%
    06:00 -3°C° 0 mm 2 mps 635 mmHg 66%
    07:00 -1°C° 0 mm 2 mps 636 mmHg 61%
    08:00 +2°C° 0 mm 2 mps 636 mmHg 56%
    09:00 +3°C° 0 mm 2 mps 637 mmHg 51%
    10:00 +6°C° 0 mm 1 mps 637 mmHg 50%
    11:00 +7°C° 0 mm 1 mps 637 mmHg 50%
    12:00 +8°C° 0 mm 1 mps 637 mmHg 49%
    13:00 +8°C° 0 mm 1 mps 637 mmHg 55%
    14:00 +7°C° 0 mm 1 mps 636 mmHg 60%
    15:00 +7°C° 0 mm 1 mps 635 mmHg 65%
    16:00 +6°C° 0 mm 1 mps 635 mmHg 60%
    17:00 +5°C° 0 mm 1 mps 634 mmHg 56%
    18:00 +3°C° 0 mm 2 mps 634 mmHg 51%
    19:00 +3°C° 0 mm 2 mps 634 mmHg 50%
    20:00 +3°C° 0 mm 2 mps 634 mmHg 50%
    21:00 +3°C° 0 mm 2 mps 634 mmHg 49%
    22:00 +4°C° 0 mm 1 mps 634 mmHg 52%
    23:00 +4°C° 0 mm 1 mps 633 mmHg 56%

    11 December, Wednesday

    Time Temperature Precipitation Wind Pressure Humidity
    00:00 +4°C° 0 mm 1 mps 633 mmHg 59%
    01:00 +4°C° 0 mm 1 mps 633 mmHg 62%
    02:00 +4°C° 0 mm 1 mps 633 mmHg 66%
    03:00 +4°C° 0 mm 1 mps 632 mmHg 69%
    04:00 +3°C° 0 mm 1 mps 632 mmHg 70%
    05:00 +2°C° 0 mm 1 mps 632 mmHg 71%
    06:00 +1°C° 0 mm 2 mps 632 mmHg 72%
    07:00 +3°C° 0 mm 1 mps 632 mmHg 69%
    08:00 +3°C° 0 mm 1 mps 633 mmHg 65%
    09:00 +4°C° 0 mm 1 mps 633 mmHg 62%
    10:00 +5°C° 0 mm 1 mps 633 mmHg 64%
    11:00 +6°C° 0 mm 1 mps 634 mmHg 65%
    12:00 +7°C° 0 mm 1 mps 634 mmHg 67%
    13:00 +6°C° 0 mm 1 mps 633 mmHg 72%
    14:00 +5°C° 0 mm 1 mps 633 mmHg 77%
    15:00 +5°C° 0 mm 1 mps 633 mmHg 81%
    16:00 +4°C° 0 mm 1 mps 632 mmHg 85%
    17:00 +3°C° 0 mm 1 mps 632 mmHg 89%
    18:00 +2°C° 0 mm 1 mps 632 mmHg 93%
    19:00 +1°C° 0 mm 1 mps 632 mmHg 93%
    20:00 +1°C° 0 mm 1 mps 632 mmHg 93%
    21:00 +1°C° 0 mm 1 mps 632 mmHg 93%
    22:00 0°C° 0 mm 1 mps 632 mmHg 91%
    23:00 0°C° 0 mm 1 mps 631 mmHg 89%
    Show more